Regional Weather Roundup
Issued by NWS

Home | Current Version | Previous Version | Graphics & Text | Print | Product List | Glossary On
Versions: 1 2 3 4 5 6 7 8 9 10 11 12 13 14 15 16 17 18 19 20 21 22 23 24 25 26 27 28 29 30 31 32 33 34 35 36 37 38 39 40 41 42 43 44 45 46 47 48 49 50
000
ASUS45 KSLC 221510
RWRUT

UTAH REGIONAL WEATHER ROUNDUP
NATIONAL WEATHER SERVICE SALT LAKE CITY UT
800 AM MST SAT NOV 22 2014

UTZ001>011-023>025-221600-

NORTHERN UTAH

CITY           SKY/WX    TMP DP  RH WIND       PRES   REMARKS
BRIGHAM CITY   CLOUDY    45  26  48 SW8       29.82F
HILL AFB       CLOUDY    45  25  45 S18       29.83F
LOGAN          CLOUDY    40  28  62 NE7       29.81R
OGDEN          CLOUDY    46  25  43 S20G29    29.82F
PROVO AIRPORT  MOCLDY    34  25  69 MISG      29.94F
SALT LAKE CITY MOCLDY    46  24  42 S13       29.84F
VERNAL         CLOUDY    26  18  71 N3        29.98F
WENDOVER       CLOUDY    32  21  64 SE3       29.86R
HEBER CITY     PTCLDY    32  23  69 CALM      29.91F
WEST JORDAN    PTCLDY    43  28  56 S24       29.86F

$$

UTZ012>022-026-027-221600-

SOUTHERN/CENTRAL UTAH

CITY           SKY/WX    TMP DP  RH WIND       PRES   REMARKS
BLANDING       PTCLDY    28  20  73 CALM      30.18S
BRYCE CANYON   PTCLDY    20  15  81 W3        30.11F
CEDAR CITY     PTCLDY    36  23  59 S10       30.06F WCI  28
DELTA          MOCLDY    36  25  63 S12       29.95F WCI  28
MILFORD        PTCLDY    37  23  56 SW17      30.00F WCI  27
MOAB/CYNLANDS  CLEAR     23  11  60 CALM      30.05F
PRICE          MOCLDY    26  14  60 CALM      30.01F
ST GEORGE      MOSUNNY   36  19  51 CALM      30.12S
KANAB          PTCLDY    27  18  69 NE3       30.16S

$$

REGIONAL REPORTS     COLORADO/ARIZONA

CITY           SKY/WX    TMP DP  RH WIND       PRES   REMARKS
CRAIG, CO      CLOUDY    25  20  81 W3        29.99F
GRAND JUNCTION PTCLDY    24  17  74 E3        30.08S
RIFLE          PTCLDY    21  17  84 NE3       30.10F
MONTROSE       PTCLDY    26  18  71 S5        30.12R WCI  20
CORTEZ         CLEAR     22  18  85 CALM      30.13R
PAGE, AZ       NOT AVBL
GRAND CANYON   PTCLDY    19  11  70 CALM      30.16S
KINGMAN        CLEAR     35  20  54 S3        30.09S
FLAGSTAFF      CLEAR     23  15  71 CALM      30.17R

$$

REGIONAL REPORTS    NEVADA/IDAHO/WYOMING

CITY           SKY/WX    TMP DP  RH WIND       PRES   REMARKS
LAS VEGAS, NV  PTCLDY    50  28  42 SW3       30.03R
ELY            MOCLDY    37  21  52 SW13      30.00S WCI  29
ELKO           LGT RAIN  40  38  93 SW3       29.88F FOG
POCATELLO, ID  LGT RAIN  39  36  89 S22       29.71F WCI  29
BURLEY         LGT RAIN  44  38  79 S22G33    29.71F
EVANSTON, WY   PTCLDY    33  22  63 SW17      29.83F WCI  22
ROCK SPRINGS   MOCLDY    32  18  56 S8        29.84F WCI  25
KEMMERER       MOCLDY    34  23  64 SW21G30   29.79F WCI  22

$$



USA.gov is the U.S. government's official web portal to all federal, state and local government web resources and services.